Вернуться в каталог

SCOUT G-1 DEB

LostPO
NORAD 35527·DEBRIS·🇺🇸 United States

Запущен Aug 25, 1988 с Vandenberg Space Force Base

Loading…

Ближайшие Пролёты (ближайшие 24 часа)

TLE

УстаревшееSource: Space-Track

Эпоха: Aug 28, 2023, 09:27 UTC

1 35527U 88074Q   23240.39433855  .00009937  00000-0  59770-2 0  9998
2 35527  89.8307 295.9084 0020509 306.4702  53.4591 14.06594836855623

Отслеживайте SCOUT G-1 DEB в реальном времени с AllMySat

Download on the App Store